Time,TemperatureF,DewpointF,PressureIn,WindDirection,WindDirectionDegrees,WindSpeedMPH,WindSpeedGustMPH,Humidity,HourlyPrecipIn,Conditions,Clouds,dailyrainin,SoftwareType,DateUTC
2013-03-09 00:00:00,28.9,22.7,30.20,SSE,167,16.3,18.9,76,0.00,,,0.00,SSEC-RIG,2013-03-09 06:00:00,
2013-03-09 00:05:00,29.1,22.6,30.20,SSE,168,16.1,19.6,76,0.00,,,0.00,SSEC-RIG,2013-03-09 06:05:00,
2013-03-09 00:10:00,29.1,22.5,30.21,South,169,15.7,19.5,75,0.00,,,0.00,SSEC-RIG,2013-03-09 06:10:00,
2013-03-09 00:20:00,29.0,22.4,30.20,SSE,168,15.9,19.7,75,0.00,,,0.00,SSEC-RIG,2013-03-09 06:20:00,
2013-03-09 00:25:00,29.0,22.3,30.20,South,171,15.2,20.0,75,0.00,,,0.00,SSEC-RIG,2013-03-09 06:25:00,
2013-03-09 00:35:00,29.1,22.3,30.20,South,169,13.8,17.3,74,0.00,,,0.00,SSEC-RIG,2013-03-09 06:35:00,
2013-03-09 00:40:00,29.2,22.3,30.20,SSE,167,14.1,20.2,74,0.00,,,0.00,SSEC-RIG,2013-03-09 06:40:00,
2013-03-09 00:45:00,29.2,22.3,30.19,SSE,168,13.8,17.7,74,0.00,,,0.00,SSEC-RIG,2013-03-09 06:45:00,
2013-03-09 00:50:00,29.2,22.3,30.19,South,169,13.4,16.9,74,0.00,,,0.00,SSEC-RIG,2013-03-09 06:50:00,
2013-03-09 00:55:00,29.3,22.3,30.19,South,181,12.2,16.3,74,0.00,,,0.00,SSEC-RIG,2013-03-09 06:55:00,
2013-03-09 01:00:00,29.2,22.2,30.20,South,190,10.8,-999.0,74,0.00,,,0.00,SSEC-RIG,2013-03-09 07:00:00,
2013-03-09 01:10:00,29.3,22.3,30.19,SSE,166,11.3,-999.0,74,0.00,,,0.00,SSEC-RIG,2013-03-09 07:10:00,
2013-03-09 01:15:00,29.4,22.3,30.19,South,172,10.3,-999.0,74,0.00,,,0.00,SSEC-RIG,2013-03-09 07:15:00,
2013-03-09 01:20:00,29.4,22.2,30.19,South,169,10.6,-999.0,73,0.00,,,0.00,SSEC-RIG,2013-03-09 07:20:00,
2013-03-09 01:25:00,29.3,22.2,30.18,SSE,161,12.3,18.3,73,0.00,,,0.00,SSEC-RIG,2013-03-09 07:25:00,
2013-03-09 01:30:00,29.5,22.2,30.18,SSE,164,12.3,-999.0,73,0.00,,,0.00,SSEC-RIG,2013-03-09 07:30:00,
2013-03-09 01:35:00,29.6,22.2,30.18,SSE,167,14.1,17.6,73,0.00,,,0.00,SSEC-RIG,2013-03-09 07:35:00,
2013-03-09 01:40:00,29.6,22.2,30.18,SSE,162,11.8,-999.0,73,0.00,,,0.00,SSEC-RIG,2013-03-09 07:40:00,
2013-03-09 01:45:00,29.6,22.2,30.17,SSE,164,13.9,17.3,72,0.00,,,0.00,SSEC-RIG,2013-03-09 07:45:00,
2013-03-09 01:50:00,29.6,22.2,30.17,SSE,163,13.0,17.9,72,0.00,,,0.00,SSEC-RIG,2013-03-09 07:50:00,
2013-03-09 01:55:00,29.6,22.3,30.17,SSE,168,13.3,18.2,73,0.00,,,0.00,SSEC-RIG,2013-03-09 07:55:00,
2013-03-09 02:00:00,29.7,22.3,30.17,South,169,13.0,16.1,73,0.00,,,0.00,SSEC-RIG,2013-03-09 08:00:00,
2013-03-09 02:05:00,29.8,22.4,30.17,SSE,168,12.1,17.0,72,0.00,,,0.00,SSEC-RIG,2013-03-09 08:05:00,
2013-03-09 02:10:00,29.9,22.5,30.17,SSE,166,11.9,18.8,73,0.00,,,0.00,SSEC-RIG,2013-03-09 08:10:00,
2013-03-09 02:15:00,30.0,22.4,30.16,SSE,163,13.8,19.2,72,0.00,,,0.00,SSEC-RIG,2013-03-09 08:15:00,
2013-03-09 02:20:00,29.9,22.4,30.16,SSE,159,12.9,-999.0,72,0.00,,,0.00,SSEC-RIG,2013-03-09 08:20:00,
2013-03-09 02:25:00,29.8,22.4,30.15,SSE,162,13.6,16.7,73,0.00,,,0.00,SSEC-RIG,2013-03-09 08:25:00,
2013-03-09 02:30:00,29.8,22.4,30.15,SSE,161,13.8,17.6,73,0.00,,,0.00,SSEC-RIG,2013-03-09 08:30:00,
2013-03-09 02:35:00,29.7,22.4,30.15,SSE,161,13.4,17.6,73,0.00,,,0.00,SSEC-RIG,2013-03-09 08:35:00,
2013-03-09 02:40:00,29.7,22.5,30.15,SSE,162,14.1,16.4,73,0.00,,,0.00,SSEC-RIG,2013-03-09 08:40:00,
2013-03-09 02:45:00,29.8,22.5,30.14,SSE,159,14.8,17.4,73,0.00,,,0.00,SSEC-RIG,2013-03-09 08:45:00,
2013-03-09 02:50:00,29.9,22.6,30.14,SSE,158,15.4,19.7,73,0.00,,,0.00,SSEC-RIG,2013-03-09 08:50:00,
2013-03-09 03:00:00,29.9,22.6,30.12,SSE,151,16.1,20.4,73,0.00,,,0.00,SSEC-RIG,2013-03-09 09:00:00,
2013-03-09 03:05:00,29.9,22.7,30.12,SSE,154,13.8,19.5,73,0.00,,,0.00,SSEC-RIG,2013-03-09 09:05:00,
2013-03-09 03:10:00,30.1,22.9,30.12,SSE,161,14.4,19.8,73,0.00,,,0.00,SSEC-RIG,2013-03-09 09:10:00,
2013-03-09 03:15:00,30.2,22.9,30.12,SSE,162,15.2,19.1,73,0.00,,,0.00,SSEC-RIG,2013-03-09 09:15:00,
2013-03-09 03:20:00,30.3,23.0,30.12,SSE,164,14.8,19.0,73,0.00,,,0.00,SSEC-RIG,2013-03-09 09:20:00,
2013-03-09 03:25:00,30.5,23.1,30.11,SSE,161,15.4,18.2,73,0.00,,,0.00,SSEC-RIG,2013-03-09 09:25:00,
2013-03-09 03:30:00,30.5,23.1,30.11,SSE,156,14.1,18.0,73,0.00,,,0.00,SSEC-RIG,2013-03-09 09:30:00,
2013-03-09 03:35:00,30.6,23.2,30.11,SSE,158,12.4,17.3,73,0.00,,,0.00,SSEC-RIG,2013-03-09 09:35:00,
2013-03-09 03:40:00,30.7,23.2,30.11,SSE,160,16.5,21.6,72,0.00,,,0.00,SSEC-RIG,2013-03-09 09:40:00,
2013-03-09 03:45:00,30.6,23.2,30.11,SSE,162,13.9,17.6,73,0.00,,,0.00,SSEC-RIG,2013-03-09 09:45:00,
2013-03-09 03:50:00,30.7,23.3,30.11,SSE,163,14.1,17.1,73,0.00,,,0.00,SSEC-RIG,2013-03-09 09:50:00,
2013-03-09 03:55:00,30.8,23.3,30.11,SSE,162,14.4,17.5,72,0.00,,,0.00,SSEC-RIG,2013-03-09 09:55:00,
2013-03-09 04:00:00,30.9,23.4,30.12,SSE,162,13.6,17.5,72,0.00,,,0.00,SSEC-RIG,2013-03-09 10:00:00,
2013-03-09 04:05:00,30.9,23.4,30.11,SSE,159,14.6,17.6,72,0.00,,,0.00,SSEC-RIG,2013-03-09 10:05:00,
2013-03-09 04:10:00,31.1,23.4,30.11,SSE,157,13.4,18.1,72,0.00,,,0.00,SSEC-RIG,2013-03-09 10:10:00,
2013-03-09 04:15:00,31.0,23.5,30.11,SSE,157,12.7,16.8,72,0.00,,,0.00,SSEC-RIG,2013-03-09 10:15:00,
2013-03-09 04:20:00,31.1,23.5,30.11,SSE,163,14.6,17.7,72,0.00,,,0.00,SSEC-RIG,2013-03-09 10:20:00,
2013-03-09 04:25:00,31.2,23.5,30.11,SSE,161,15.7,19.2,72,0.00,,,0.00,SSEC-RIG,2013-03-09 10:25:00,
2013-03-09 04:30:00,31.3,23.6,30.12,SSE,167,12.6,16.5,72,0.00,,,0.00,SSEC-RIG,2013-03-09 10:30:00,
2013-03-09 04:35:00,31.4,23.7,30.12,South,177,13.2,17.4,72,0.00,,,0.00,SSEC-RIG,2013-03-09 10:35:00,
2013-03-09 04:40:00,31.4,23.8,30.12,SSE,166,13.5,17.2,72,0.00,,,0.00,SSEC-RIG,2013-03-09 10:40:00,
2013-03-09 04:45:00,31.3,23.8,30.12,SSE,167,13.4,16.4,72,0.00,,,0.00,SSEC-RIG,2013-03-09 10:45:00,
2013-03-09 04:50:00,31.3,23.9,30.11,SSE,164,12.0,16.6,73,0.00,,,0.00,SSEC-RIG,2013-03-09 10:50:00,
2013-03-09 04:55:00,31.4,23.9,30.11,SSE,163,11.4,16.3,72,0.00,,,0.00,SSEC-RIG,2013-03-09 10:55:00,
2013-03-09 05:00:00,31.4,24.1,30.11,SSE,168,11.9,17.2,73,0.00,,,0.00,SSEC-RIG,2013-03-09 11:00:00,
2013-03-09 05:05:00,31.5,24.1,30.11,SSE,166,13.9,18.5,73,0.00,,,0.00,SSEC-RIG,2013-03-09 11:05:00,
2013-03-09 05:10:00,31.5,24.2,30.11,SSE,165,13.4,16.6,73,0.00,,,0.00,SSEC-RIG,2013-03-09 11:10:00,
2013-03-09 05:15:00,31.6,24.2,30.10,SSE,161,16.3,19.2,73,0.00,,,0.00,SSEC-RIG,2013-03-09 11:15:00,
2013-03-09 05:20:00,31.6,24.2,30.10,SSE,158,15.9,18.5,73,0.00,,,0.00,SSEC-RIG,2013-03-09 11:20:00,
2013-03-09 05:25:00,31.7,24.3,30.10,SSE,159,17.2,20.0,73,0.00,,,0.00,SSEC-RIG,2013-03-09 11:25:00,
2013-03-09 05:30:00,31.7,24.5,30.10,SSE,161,14.0,17.1,73,0.00,,,0.00,SSEC-RIG,2013-03-09 11:30:00,
2013-03-09 05:35:00,31.7,24.6,30.10,SSE,164,12.6,18.3,74,0.00,,,0.00,SSEC-RIG,2013-03-09 11:35:00,
2013-03-09 05:40:00,31.8,24.6,30.10,SSE,157,14.0,17.8,73,0.00,,,0.00,SSEC-RIG,2013-03-09 11:40:00,
2013-03-09 05:45:00,32.0,24.8,30.10,SSE,164,14.1,18.2,73,0.00,,,0.00,SSEC-RIG,2013-03-09 11:45:00,
2013-03-09 05:50:00,32.0,24.8,30.10,SSE,163,15.4,19.7,73,0.00,,,0.00,SSEC-RIG,2013-03-09 11:50:00,
2013-03-09 05:55:00,32.0,24.8,30.10,SSE,163,15.5,19.6,74,0.00,,,0.00,SSEC-RIG,2013-03-09 11:55:00,
2013-03-09 06:00:00,32.1,25.0,30.10,SSE,166,14.3,19.0,74,0.00,,,0.00,SSEC-RIG,2013-03-09 12:00:00,
2013-03-09 06:10:00,32.3,25.1,30.10,South,171,14.0,19.2,73,0.00,,,0.00,SSEC-RIG,2013-03-09 12:10:00,
2013-03-09 06:15:00,32.5,25.2,30.10,South,174,15.9,21.3,73,0.00,,,0.00,SSEC-RIG,2013-03-09 12:15:00,
2013-03-09 06:20:00,32.7,25.3,30.10,South,181,13.0,18.5,73,0.00,,,0.00,SSEC-RIG,2013-03-09 12:20:00,
2013-03-09 06:25:00,32.6,25.3,30.09,South,174,14.0,21.3,73,0.00,,,0.00,SSEC-RIG,2013-03-09 12:25:00,
2013-03-09 06:30:00,32.7,25.3,30.09,South,174,15.1,19.7,73,0.00,,,0.00,SSEC-RIG,2013-03-09 12:30:00,
2013-03-09 06:35:00,32.8,25.4,30.09,South,174,17.2,25.5,73,0.00,,,0.00,SSEC-RIG,2013-03-09 12:35:00,
2013-03-09 06:40:00,32.7,25.6,30.09,South,176,14.0,19.8,74,0.00,,,0.00,SSEC-RIG,2013-03-09 12:40:00,
2013-03-09 06:45:00,32.7,25.8,30.09,South,178,16.0,22.0,75,0.00,,,0.00,SSEC-RIG,2013-03-09 12:45:00,
2013-03-09 06:50:00,32.6,26.0,30.09,South,177,15.1,19.7,75,0.00,,,0.00,SSEC-RIG,2013-03-09 12:50:00,
2013-03-09 06:55:00,32.6,26.2,30.08,South,173,14.7,17.7,76,0.00,,,0.00,SSEC-RIG,2013-03-09 12:55:00,
2013-03-09 07:00:00,32.6,26.5,30.09,South,177,10.8,-999.0,77,0.00,,,0.00,SSEC-RIG,2013-03-09 13:00:00,
2013-03-09 07:05:00,32.7,26.7,30.09,South,174,11.0,17.2,77,0.00,,,0.00,SSEC-RIG,2013-03-09 13:05:00,
2013-03-09 07:15:00,32.8,27.0,30.09,South,176,14.0,19.9,78,0.00,,,0.00,SSEC-RIG,2013-03-09 13:15:00,
2013-03-09 07:20:00,32.8,27.2,30.09,South,181,12.5,16.9,79,0.00,,,0.00,SSEC-RIG,2013-03-09 13:20:00,
2013-03-09 07:25:00,32.9,27.4,30.09,South,183,14.5,17.6,79,0.00,,,0.00,SSEC-RIG,2013-03-09 13:25:00,
2013-03-09 07:30:00,32.9,27.7,30.10,South,185,13.6,17.3,80,0.00,,,0.00,SSEC-RIG,2013-03-09 13:30:00,
2013-03-09 07:40:00,32.8,28.2,30.10,South,185,12.2,-999.0,82,0.00,,,0.00,SSEC-RIG,2013-03-09 13:40:00,
2013-03-09 07:50:00,32.9,28.6,30.09,South,182,13.3,16.5,83,0.00,,,0.00,SSEC-RIG,2013-03-09 13:50:00,
2013-03-09 07:55:00,33.0,28.8,30.09,South,174,13.9,17.0,83,0.00,,,0.00,SSEC-RIG,2013-03-09 13:55:00,
2013-03-09 08:00:00,33.1,28.9,30.08,South,174,16.6,19.0,83,0.00,,,0.00,SSEC-RIG,2013-03-09 14:00:00,
2013-03-09 08:05:00,33.2,29.1,30.08,South,181,11.6,17.3,84,0.00,,,0.00,SSEC-RIG,2013-03-09 14:05:00,
2013-03-09 08:10:00,33.3,29.2,30.08,South,176,13.8,18.6,84,0.00,,,0.00,SSEC-RIG,2013-03-09 14:10:00,
2013-03-09 08:15:00,33.4,29.3,30.08,South,174,14.3,18.8,84,0.00,,,0.00,SSEC-RIG,2013-03-09 14:15:00,
2013-03-09 08:20:00,33.4,29.4,30.08,South,170,17.5,22.2,84,0.00,,,0.00,SSEC-RIG,2013-03-09 14:20:00,
2013-03-09 08:25:00,33.5,29.5,30.07,South,171,16.8,20.0,84,0.00,,,0.00,SSEC-RIG,2013-03-09 14:25:00,
2013-03-09 08:30:00,33.6,29.7,30.07,SSE,168,14.4,19.7,84,0.00,,,0.00,SSEC-RIG,2013-03-09 14:30:00,
2013-03-09 08:40:00,33.6,30.0,30.06,SSE,165,18.0,24.3,85,0.00,,,0.00,SSEC-RIG,2013-03-09 14:40:00,
2013-03-09 08:50:00,33.6,30.5,30.05,SSE,162,17.9,22.4,87,0.00,,,0.01,SSEC-RIG,2013-03-09 14:50:00,
2013-03-09 08:55:00,33.7,30.6,30.05,SSE,166,19.3,23.0,87,0.00,,,0.01,SSEC-RIG,2013-03-09 14:55:00,
2013-03-09 09:00:00,33.8,30.8,30.06,South,173,16.5,20.5,88,0.00,,,0.01,SSEC-RIG,2013-03-09 15:00:00,
2013-03-09 09:05:00,33.8,31.0,30.05,SSE,167,15.0,21.4,88,0.00,,,0.02,SSEC-RIG,2013-03-09 15:05:00,
2013-03-09 09:10:00,34.0,31.1,30.05,SSE,167,17.9,22.3,88,0.00,,,0.02,SSEC-RIG,2013-03-09 15:10:00,
2013-03-09 09:15:00,34.2,31.2,30.04,SSE,167,16.5,23.7,88,0.00,,,0.02,SSEC-RIG,2013-03-09 15:15:00,
2013-03-09 09:20:00,34.4,31.3,30.04,South,170,17.8,24.1,87,0.00,,,0.02,SSEC-RIG,2013-03-09 15:20:00,
2013-03-09 09:25:00,34.7,31.4,30.03,SSE,167,19.0,26.5,87,0.00,,,0.02,SSEC-RIG,2013-03-09 15:25:00,
2013-03-09 09:30:00,34.9,31.2,30.03,South,173,21.9,28.1,85,0.00,,,0.02,SSEC-RIG,2013-03-09 15:30:00,
2013-03-09 09:35:00,35.0,31.2,30.03,SSE,168,21.2,26.9,85,0.00,,,0.02,SSEC-RIG,2013-03-09 15:35:00,
2013-03-09 09:40:00,35.0,31.0,30.02,South,172,22.0,28.5,84,0.00,,,0.02,SSEC-RIG,2013-03-09 15:40:00,
2013-03-09 09:45:00,35.2,31.0,30.02,SSE,166,19.8,26.3,84,0.00,,,0.02,SSEC-RIG,2013-03-09 15:45:00,
2013-03-09 09:50:00,35.3,31.0,30.01,SSE,167,19.6,24.1,83,0.00,,,0.02,SSEC-RIG,2013-03-09 15:50:00,
2013-03-09 09:55:00,35.5,30.9,30.00,SSE,166,19.6,25.5,82,0.00,,,0.02,SSEC-RIG,2013-03-09 15:55:00,
2013-03-09 10:00:00,35.7,30.7,30.01,South,174,20.4,28.3,81,0.01,,,0.03,SSEC-RIG,2013-03-09 16:00:00,
2013-03-09 10:05:00,35.7,30.7,30.00,SSE,166,18.6,26.1,81,0.00,,,0.03,SSEC-RIG,2013-03-09 16:05:00,
2013-03-09 10:10:00,35.9,30.7,30.00,South,169,18.4,26.5,80,0.00,,,0.03,SSEC-RIG,2013-03-09 16:10:00,
2013-03-09 10:15:00,36.0,30.6,29.99,SSE,165,21.3,26.9,79,0.00,,,0.03,SSEC-RIG,2013-03-09 16:15:00,
2013-03-09 10:20:00,36.1,30.6,29.99,SSE,165,19.0,26.0,79,0.00,,,0.03,SSEC-RIG,2013-03-09 16:20:00,
2013-03-09 10:25:00,36.3,30.5,29.99,South,170,18.4,27.9,78,0.00,,,0.03,SSEC-RIG,2013-03-09 16:25:00,
2013-03-09 10:30:00,36.6,30.5,29.99,South,176,15.7,25.7,77,0.00,,,0.03,SSEC-RIG,2013-03-09 16:30:00,
2013-03-09 10:35:00,36.3,30.1,29.99,South,173,23.9,31.3,77,0.00,,,0.03,SSEC-RIG,2013-03-09 16:35:00,
2013-03-09 10:40:00,36.2,29.9,29.99,South,170,24.2,28.5,77,0.00,,,0.03,SSEC-RIG,2013-03-09 16:40:00,
2013-03-09 10:45:00,36.3,29.8,29.98,SSE,168,25.0,29.6,76,0.00,,,0.03,SSEC-RIG,2013-03-09 16:45:00,
2013-03-09 10:50:00,36.5,29.8,29.98,South,169,22.4,28.4,76,0.00,,,0.03,SSEC-RIG,2013-03-09 16:50:00,
2013-03-09 10:55:00,36.7,30.0,29.98,South,175,18.6,25.2,75,0.00,,,0.03,SSEC-RIG,2013-03-09 16:55:00,
2013-03-09 11:00:00,36.7,30.0,29.98,South,172,18.5,25.9,75,0.00,,,0.03,SSEC-RIG,2013-03-09 17:00:00,
2013-03-09 11:05:00,36.6,29.7,29.97,South,171,22.3,28.7,75,0.00,,,0.03,SSEC-RIG,2013-03-09 17:05:00,
2013-03-09 11:10:00,36.9,29.7,29.97,South,171,20.0,28.0,74,0.00,,,0.03,SSEC-RIG,2013-03-09 17:10:00,
2013-03-09 11:15:00,36.9,29.5,29.97,South,171,22.4,27.9,73,0.00,,,0.03,SSEC-RIG,2013-03-09 17:15:00,
2013-03-09 11:20:00,37.0,29.4,29.97,SSE,168,21.3,30.4,73,0.00,,,0.03,SSEC-RIG,2013-03-09 17:20:00,
2013-03-09 11:25:00,37.1,29.3,29.97,South,177,21.6,27.9,72,0.00,,,0.03,SSEC-RIG,2013-03-09 17:25:00,
2013-03-09 11:30:00,37.0,29.2,29.97,South,175,19.9,27.9,72,0.00,,,0.03,SSEC-RIG,2013-03-09 17:30:00,
2013-03-09 11:35:00,37.3,29.4,29.97,South,184,15.2,25.1,72,0.00,,,0.03,SSEC-RIG,2013-03-09 17:35:00,
2013-03-09 11:40:00,37.3,29.3,29.97,South,179,16.3,26.3,71,0.00,,,0.03,SSEC-RIG,2013-03-09 17:40:00,
2013-03-09 11:45:00,37.5,29.3,29.97,South,176,16.0,23.3,71,0.00,,,0.03,SSEC-RIG,2013-03-09 17:45:00,
2013-03-09 11:50:00,37.6,29.1,29.97,South,173,16.9,24.3,70,0.00,,,0.03,SSEC-RIG,2013-03-09 17:50:00,
2013-03-09 12:00:00,38.0,28.9,29.97,South,178,18.5,24.7,69,0.00,,,0.03,SSEC-RIG,2013-03-09 18:00:00,
2013-03-09 12:05:00,38.1,28.8,29.96,South,182,20.0,26.1,68,0.00,,,0.03,SSEC-RIG,2013-03-09 18:05:00,
2013-03-09 12:10:00,38.2,28.8,29.96,South,182,19.1,25.2,68,0.00,,,0.03,SSEC-RIG,2013-03-09 18:10:00,
2013-03-09 12:15:00,38.2,28.9,29.96,South,183,20.5,27.1,68,0.00,,,0.03,SSEC-RIG,2013-03-09 18:15:00,
2013-03-09 12:20:00,38.2,28.9,29.95,South,181,20.4,26.2,68,0.00,,,0.03,SSEC-RIG,2013-03-09 18:20:00,
2013-03-09 12:25:00,38.2,29.0,29.95,South,186,17.4,24.6,68,0.00,,,0.03,SSEC-RIG,2013-03-09 18:25:00,
2013-03-09 12:30:00,38.1,29.1,29.94,South,184,19.6,28.4,69,0.00,,,0.03,SSEC-RIG,2013-03-09 18:30:00,
2013-03-09 12:35:00,38.1,29.3,29.94,South,183,17.0,22.5,69,0.00,,,0.03,SSEC-RIG,2013-03-09 18:35:00,
2013-03-09 12:40:00,38.1,29.3,29.93,South,184,20.2,28.0,69,0.00,,,0.03,SSEC-RIG,2013-03-09 18:40:00,
2013-03-09 12:45:00,38.1,29.4,29.93,South,180,17.7,23.0,70,0.00,,,0.03,SSEC-RIG,2013-03-09 18:45:00,
2013-03-09 12:50:00,38.1,29.4,29.92,South,181,14.8,23.4,70,0.00,,,0.03,SSEC-RIG,2013-03-09 18:50:00,
2013-03-09 12:55:00,38.0,29.5,29.92,South,173,14.9,23.9,70,0.00,,,0.03,SSEC-RIG,2013-03-09 18:55:00,
2013-03-09 13:00:00,37.7,29.5,29.92,South,171,16.6,22.8,71,0.00,,,0.03,SSEC-RIG,2013-03-09 19:00:00,
2013-03-09 13:05:00,37.7,29.5,29.92,South,176,17.0,24.2,71,0.00,,,0.03,SSEC-RIG,2013-03-09 19:05:00,
2013-03-09 13:10:00,37.7,29.6,29.91,South,171,17.4,22.3,72,0.00,,,0.03,SSEC-RIG,2013-03-09 19:10:00,
2013-03-09 13:15:00,37.8,29.9,29.91,South,170,20.2,25.8,72,0.00,,,0.03,SSEC-RIG,2013-03-09 19:15:00,
2013-03-09 13:20:00,37.8,30.0,29.90,South,176,19.3,25.7,72,0.00,,,0.03,SSEC-RIG,2013-03-09 19:20:00,
2013-03-09 13:25:00,37.9,30.2,29.90,South,171,18.3,23.1,72,0.00,,,0.03,SSEC-RIG,2013-03-09 19:25:00,
2013-03-09 13:30:00,38.1,30.3,29.90,South,170,16.9,26.1,72,0.00,,,0.03,SSEC-RIG,2013-03-09 19:30:00,
2013-03-09 13:35:00,37.9,30.3,29.89,South,171,19.8,25.7,73,0.00,,,0.03,SSEC-RIG,2013-03-09 19:35:00,
2013-03-09 13:40:00,37.8,30.2,29.89,South,170,17.5,26.4,73,0.00,,,0.03,SSEC-RIG,2013-03-09 19:40:00,
2013-03-09 13:45:00,37.6,30.0,29.89,South,170,18.4,24.1,73,0.00,,,0.03,SSEC-RIG,2013-03-09 19:45:00,
2013-03-09 13:55:00,37.3,29.9,29.88,South,177,20.6,25.6,73,0.00,,,0.03,SSEC-RIG,2013-03-09 19:55:00,
2013-03-09 14:00:00,37.3,29.9,29.88,South,174,20.9,25.7,74,0.00,,,0.03,SSEC-RIG,2013-03-09 20:00:00,
2013-03-09 14:05:00,37.3,30.0,29.87,SSE,168,17.2,24.9,74,0.00,,,0.03,SSEC-RIG,2013-03-09 20:05:00,
2013-03-09 14:10:00,37.2,30.1,29.87,SSE,167,17.1,27.6,74,0.00,,,0.03,SSEC-RIG,2013-03-09 20:10:00,
2013-03-09 14:15:00,37.2,30.2,29.87,South,175,20.5,27.7,75,0.00,,,0.03,SSEC-RIG,2013-03-09 20:15:00,
2013-03-09 14:20:00,37.2,30.5,29.87,South,176,19.5,24.2,76,0.00,,,0.03,SSEC-RIG,2013-03-09 20:20:00,
2013-03-09 14:25:00,37.0,30.7,29.86,South,171,17.7,22.2,77,0.00,,,0.03,SSEC-RIG,2013-03-09 20:25:00,
2013-03-09 14:30:00,36.8,31.0,29.86,SSE,166,16.8,22.2,78,0.00,,,0.03,SSEC-RIG,2013-03-09 20:30:00,
2013-03-09 14:35:00,36.7,31.2,29.86,SSE,168,15.9,25.0,79,0.00,,,0.03,SSEC-RIG,2013-03-09 20:35:00,
2013-03-09 14:40:00,36.5,31.5,29.86,South,174,16.5,21.1,81,0.00,,,0.03,SSEC-RIG,2013-03-09 20:40:00,
2013-03-09 14:45:00,36.3,31.8,29.86,South,171,17.0,22.0,82,0.01,,,0.04,SSEC-RIG,2013-03-09 20:45:00,
2013-03-09 14:50:00,36.2,31.9,29.86,South,171,16.5,21.6,83,0.00,,,0.04,SSEC-RIG,2013-03-09 20:50:00,
2013-03-09 14:55:00,36.1,31.9,29.86,South,169,15.7,21.6,84,0.00,,,0.04,SSEC-RIG,2013-03-09 20:55:00,
2013-03-09 15:05:00,36.0,32.2,29.85,South,171,16.4,24.7,85,0.00,,,0.04,SSEC-RIG,2013-03-09 21:05:00,
2013-03-09 15:10:00,35.9,32.3,29.85,South,169,17.9,23.0,86,0.00,,,0.04,SSEC-RIG,2013-03-09 21:10:00,
2013-03-09 15:15:00,35.9,32.5,29.84,South,170,19.3,24.7,86,0.00,,,0.04,SSEC-RIG,2013-03-09 21:15:00,
2013-03-09 15:20:00,35.9,32.6,29.84,South,172,18.1,21.9,87,0.00,,,0.04,SSEC-RIG,2013-03-09 21:20:00,
2013-03-09 15:25:00,35.9,32.8,29.84,South,170,15.9,21.2,87,0.00,,,0.04,SSEC-RIG,2013-03-09 21:25:00,
2013-03-09 15:30:00,35.8,32.7,29.84,South,172,15.6,19.9,87,0.00,,,0.04,SSEC-RIG,2013-03-09 21:30:00,
2013-03-09 15:35:00,35.7,32.8,29.84,SSE,166,13.4,19.0,88,0.00,,,0.04,SSEC-RIG,2013-03-09 21:35:00,
2013-03-09 15:40:00,35.7,32.7,29.84,SSE,167,14.3,18.2,88,0.00,,,0.04,SSEC-RIG,2013-03-09 21:40:00,
2013-03-09 15:50:00,35.6,32.6,29.83,SSE,164,15.8,20.1,87,0.00,,,0.04,SSEC-RIG,2013-03-09 21:50:00,
2013-03-09 16:00:00,35.8,32.8,29.83,SSE,167,19.0,23.4,88,0.00,,,0.04,SSEC-RIG,2013-03-09 22:00:00,
2013-03-09 16:05:00,35.7,32.8,29.82,SSE,167,19.0,24.4,88,0.01,,,0.05,SSEC-RIG,2013-03-09 22:05:00,
2013-03-09 16:15:00,35.5,33.0,29.82,SSE,167,19.1,25.2,89,0.00,,,0.05,SSEC-RIG,2013-03-09 22:15:00,
2013-03-09 16:20:00,35.3,33.0,29.81,SSE,161,19.2,23.8,90,0.00,,,0.05,SSEC-RIG,2013-03-09 22:20:00,
2013-03-09 16:25:00,35.3,33.2,29.81,SSE,167,20.6,26.1,91,0.01,,,0.06,SSEC-RIG,2013-03-09 22:25:00,
2013-03-09 16:30:00,35.2,33.3,29.81,SSE,166,19.8,24.5,91,0.00,,,0.06,SSEC-RIG,2013-03-09 22:30:00,
2013-03-09 16:35:00,35.2,33.3,29.81,SSE,166,19.4,25.5,92,0.00,,,0.06,SSEC-RIG,2013-03-09 22:35:00,
2013-03-09 16:40:00,35.2,33.4,29.81,SSE,166,18.9,25.7,92,0.00,,,0.06,SSEC-RIG,2013-03-09 22:40:00,
2013-03-09 16:45:00,35.3,33.5,29.81,South,170,16.1,22.3,92,0.01,,,0.07,SSEC-RIG,2013-03-09 22:45:00,
2013-03-09 16:50:00,35.4,33.6,29.81,South,173,19.1,24.2,92,0.00,,,0.07,SSEC-RIG,2013-03-09 22:50:00,
2013-03-09 16:55:00,35.5,33.6,29.81,South,170,18.9,24.9,92,0.00,,,0.07,SSEC-RIG,2013-03-09 22:55:00,
2013-03-09 17:05:00,35.5,33.7,29.81,SSE,161,17.7,24.3,92,0.00,,,0.07,SSEC-RIG,2013-03-09 23:05:00,
2013-03-09 17:10:00,35.4,33.7,29.80,SSE,162,19.5,22.6,92,0.00,,,0.07,SSEC-RIG,2013-03-09 23:10:00,
2013-03-09 17:15:00,35.4,33.8,29.81,SSE,162,18.9,21.8,93,0.00,,,0.07,SSEC-RIG,2013-03-09 23:15:00,
2013-03-09 17:20:00,35.4,33.8,29.81,SSE,161,16.8,20.9,93,0.01,,,0.08,SSEC-RIG,2013-03-09 23:20:00,
2013-03-09 17:25:00,35.4,33.8,29.80,SSE,164,16.4,19.2,93,0.00,,,0.08,SSEC-RIG,2013-03-09 23:25:00,
2013-03-09 17:30:00,35.4,33.8,29.80,SSE,165,15.6,19.0,93,0.00,,,0.08,SSEC-RIG,2013-03-09 23:30:00,
2013-03-09 17:35:00,35.4,33.8,29.81,SSE,166,15.7,19.4,93,0.00,,,0.08,SSEC-RIG,2013-03-09 23:35:00,
2013-03-09 17:45:00,35.4,33.8,29.81,SSE,166,12.5,16.6,92,0.00,,,0.08,SSEC-RIG,2013-03-09 23:45:00,
2013-03-09 17:50:00,35.4,33.7,29.81,SSE,163,14.9,18.8,92,0.00,,,0.08,SSEC-RIG,2013-03-09 23:50:00,
2013-03-09 17:55:00,35.4,33.7,29.81,SSE,166,15.8,19.8,92,0.00,,,0.08,SSEC-RIG,2013-03-09 23:55:00,
2013-03-09 18:00:00,35.4,33.7,29.80,SSE,163,19.6,24.6,92,0.01,,,0.09,SSEC-RIG,2013-03-10 00:00:00,
2013-03-09 18:05:00,35.6,33.6,29.80,SSE,168,20.2,25.4,92,0.00,,,0.00,SSEC-RIG,2013-03-10 00:05:00,
2013-03-09 18:10:00,35.5,33.7,29.80,SSE,168,19.0,22.4,92,0.01,,,0.01,SSEC-RIG,2013-03-10 00:10:00,
2013-03-09 18:15:00,35.5,33.8,29.80,South,170,17.1,25.5,92,0.01,,,0.02,SSEC-RIG,2013-03-10 00:15:00,
2013-03-09 18:20:00,35.6,33.8,29.79,South,172,18.2,22.2,92,0.00,,,0.02,SSEC-RIG,2013-03-10 00:20:00,
2013-03-09 18:25:00,35.7,33.8,29.80,South,178,17.9,24.0,92,0.01,,,0.03,SSEC-RIG,2013-03-10 00:25:00,
2013-03-09 18:30:00,35.6,33.8,29.81,South,183,17.1,20.2,92,0.01,,,0.04,SSEC-RIG,2013-03-10 00:30:00,
2013-03-09 18:35:00,35.7,33.8,29.80,South,177,19.7,24.0,92,0.00,,,0.04,SSEC-RIG,2013-03-10 00:35:00,
2013-03-09 18:40:00,35.8,33.9,29.80,South,175,18.4,24.6,92,0.01,,,0.05,SSEC-RIG,2013-03-10 00:40:00,
2013-03-09 18:45:00,35.8,33.9,29.80,South,180,16.0,21.5,92,0.00,,,0.05,SSEC-RIG,2013-03-10 00:45:00,
2013-03-09 18:50:00,35.9,33.9,29.81,South,186,17.0,21.3,91,0.01,,,0.06,SSEC-RIG,2013-03-10 00:50:00,
2013-03-09 18:55:00,35.8,33.9,29.81,South,190,13.9,18.8,91,0.00,,,0.06,SSEC-RIG,2013-03-10 00:55:00,
2013-03-09 19:00:00,35.8,33.9,29.82,South,190,13.7,17.3,92,0.00,,,0.06,SSEC-RIG,2013-03-10 01:00:00,
2013-03-09 19:05:00,35.9,33.9,29.82,SSW,192,12.0,17.2,91,0.00,,,0.06,SSEC-RIG,2013-03-10 01:05:00,
2013-03-09 19:15:00,36.1,34.0,29.82,South,183,15.1,18.6,91,0.01,,,0.07,SSEC-RIG,2013-03-10 01:15:00,
2013-03-09 19:20:00,36.2,34.0,29.81,South,183,15.8,20.1,91,0.00,,,0.07,SSEC-RIG,2013-03-10 01:20:00,
2013-03-09 19:25:00,36.2,33.9,29.81,South,177,16.3,20.7,90,0.01,,,0.08,SSEC-RIG,2013-03-10 01:25:00,
2013-03-09 19:35:00,36.0,33.8,29.80,SSE,167,16.7,21.4,91,0.00,,,0.08,SSEC-RIG,2013-03-10 01:35:00,
2013-03-09 19:40:00,35.9,33.8,29.79,SSE,163,16.1,20.5,91,0.00,,,0.08,SSEC-RIG,2013-03-10 01:40:00,
2013-03-09 19:45:00,35.9,33.9,29.79,SSE,168,13.0,18.3,91,0.00,,,0.08,SSEC-RIG,2013-03-10 01:45:00,
2013-03-09 19:55:00,36.1,34.1,29.80,South,173,12.4,17.7,91,0.00,,,0.09,SSEC-RIG,2013-03-10 01:55:00,
2013-03-09 20:05:00,36.0,34.2,29.80,South,177,11.9,16.1,92,0.01,,,0.11,SSEC-RIG,2013-03-10 02:05:00,
2013-03-09 20:10:00,36.0,34.3,29.80,South,175,10.1,-999.0,92,0.02,,,0.13,SSEC-RIG,2013-03-10 02:10:00,
2013-03-09 20:15:00,36.0,34.3,29.80,South,177,11.5,17.3,92,0.01,,,0.14,SSEC-RIG,2013-03-10 02:15:00,
2013-03-09 20:20:00,36.1,34.4,29.79,South,172,14.6,18.9,92,0.01,,,0.15,SSEC-RIG,2013-03-10 02:20:00,
2013-03-09 20:25:00,36.2,34.4,29.80,South,177,12.6,-999.0,92,0.01,,,0.16,SSEC-RIG,2013-03-10 02:25:00,
2013-03-09 20:30:00,36.3,34.5,29.80,South,184,9.5,-999.0,92,0.00,,,0.16,SSEC-RIG,2013-03-10 02:30:00,
2013-03-09 20:35:00,36.4,34.5,29.80,South,179,12.8,18.5,92,0.01,,,0.17,SSEC-RIG,2013-03-10 02:35:00,
2013-03-09 20:40:00,36.4,34.6,29.80,South,177,12.1,-999.0,92,0.00,,,0.17,SSEC-RIG,2013-03-10 02:40:00,
2013-03-09 20:50:00,36.6,34.8,29.80,South,179,13.1,18.8,92,0.01,,,0.19,SSEC-RIG,2013-03-10 02:50:00,
2013-03-09 20:55:00,36.7,35.0,29.80,South,178,12.5,16.6,92,0.00,,,0.19,SSEC-RIG,2013-03-10 02:55:00,
2013-03-09 21:00:00,36.7,35.1,29.80,South,177,12.3,-999.0,93,0.01,,,0.20,SSEC-RIG,2013-03-10 03:00:00,
2013-03-09 21:05:00,36.7,35.1,29.80,South,175,13.7,16.8,93,0.00,,,0.20,SSEC-RIG,2013-03-10 03:05:00,
2013-03-09 21:10:00,36.8,35.2,29.80,South,175,13.9,17.3,93,0.00,,,0.20,SSEC-RIG,2013-03-10 03:10:00,
2013-03-09 21:15:00,36.9,35.3,29.80,South,178,14.4,17.6,93,0.01,,,0.21,SSEC-RIG,2013-03-10 03:15:00,
2013-03-09 21:20:00,37.0,35.5,29.80,South,176,14.6,17.9,93,0.00,,,0.21,SSEC-RIG,2013-03-10 03:20:00,
2013-03-09 21:25:00,37.1,35.5,29.80,South,174,14.3,18.3,93,0.00,,,0.21,SSEC-RIG,2013-03-10 03:25:00,
2013-03-09 21:30:00,37.1,35.6,29.80,South,174,13.4,16.5,93,0.01,,,0.22,SSEC-RIG,2013-03-10 03:30:00,
2013-03-09 21:35:00,37.0,35.7,29.80,South,179,12.5,18.2,94,0.00,,,0.22,SSEC-RIG,2013-03-10 03:35:00,
2013-03-09 21:40:00,37.1,35.8,29.80,South,179,13.2,17.7,94,0.00,,,0.22,SSEC-RIG,2013-03-10 03:40:00,
2013-03-09 21:45:00,37.1,35.8,29.80,South,181,11.9,17.1,94,0.01,,,0.23,SSEC-RIG,2013-03-10 03:45:00,
2013-03-09 21:55:00,36.8,35.7,29.80,South,175,12.8,-999.0,95,0.00,,,0.23,SSEC-RIG,2013-03-10 03:55:00,
2013-03-09 22:00:00,36.6,35.7,29.79,South,169,12.7,-999.0,95,0.00,,,0.23,SSEC-RIG,2013-03-10 04:00:00,
2013-03-09 22:05:00,36.6,35.7,29.79,South,169,12.3,-999.0,96,0.00,,,0.23,SSEC-RIG,2013-03-10 04:05:00,
2013-03-09 22:10:00,36.7,35.9,29.79,South,174,12.7,16.9,96,0.00,,,0.23,SSEC-RIG,2013-03-10 04:10:00,
2013-03-09 22:20:00,36.7,36.0,29.79,South,182,9.3,-999.0,96,0.01,,,0.25,SSEC-RIG,2013-03-10 04:20:00,
2013-03-09 22:25:00,36.7,36.0,29.79,South,180,10.1,-999.0,96,0.01,,,0.26,SSEC-RIG,2013-03-10 04:25:00,
2013-03-09 22:35:00,36.8,36.2,29.78,South,177,10.4,-999.0,97,0.01,,,0.27,SSEC-RIG,2013-03-10 04:35:00,
2013-03-09 22:40:00,36.8,36.2,29.78,South,179,11.0,-999.0,97,0.00,,,0.27,SSEC-RIG,2013-03-10 04:40:00,
2013-03-09 22:50:00,37.1,36.4,29.78,South,181,11.3,-999.0,96,0.00,,,0.27,SSEC-RIG,2013-03-10 04:50:00,
2013-03-09 22:55:00,37.1,36.3,29.77,South,175,11.6,-999.0,96,0.00,,,0.27,SSEC-RIG,2013-03-10 04:55:00,
2013-03-09 23:05:00,36.8,36.1,29.76,SSE,167,11.7,-999.0,96,0.00,,,0.27,SSEC-RIG,2013-03-10 05:05:00,
2013-03-09 23:10:00,36.7,36.2,29.76,SSE,164,11.1,-999.0,97,0.00,,,0.27,SSEC-RIG,2013-03-10 05:10:00,
2013-03-09 23:15:00,36.8,36.2,29.75,SSE,163,10.6,-999.0,97,0.00,,,0.27,SSEC-RIG,2013-03-10 05:15:00,
2013-03-09 23:20:00,36.8,36.2,29.75,SSE,166,11.9,-999.0,97,0.00,,,0.27,SSEC-RIG,2013-03-10 05:20:00,
2013-03-09 23:25:00,36.8,36.2,29.75,SSE,165,12.2,-999.0,96,0.00,,,0.27,SSEC-RIG,2013-03-10 05:25:00,
2013-03-09 23:30:00,36.8,36.1,29.75,SSE,164,11.2,-999.0,96,0.01,,,0.28,SSEC-RIG,2013-03-10 05:30:00,
2013-03-09 23:35:00,36.8,36.0,29.75,SSE,167,11.6,-999.0,96,0.00,,,0.28,SSEC-RIG,2013-03-10 05:35:00,
2013-03-09 23:40:00,36.8,36.0,29.75,SSE,168,11.0,-999.0,96,0.00,,,0.28,SSEC-RIG,2013-03-10 05:40:00,
2013-03-09 23:45:00,36.9,36.0,29.75,South,173,12.3,-999.0,96,0.00,,,0.28,SSEC-RIG,2013-03-10 05:45:00,
2013-03-09 23:50:00,36.9,36.0,29.74,South,173,12.3,-999.0,95,0.00,,,0.28,SSEC-RIG,2013-03-10 05:50:00,